This demonstration page uses our WeatherBlox Daily Observations layout. Learn more.

Left ArrowRight Arrow

Hourly Observations for March 1, 2019

Temp ( °F °C ) Dew Point ( °F °C ) Humidity (%) Winds ( mph kmh ) Pressure ( in mb ) Visibility ( mi km ) Precip ( " mm )
12:15 am 00:15 Cloudy 27 -3 27 -3 100 100 NE 6 9 30.19 1022 10 16 N/A
12:35 am 00:35 Cloudy 28 -2 28 -2 100 100 NE 5 7 30.17 1022 10 16 N/A
12:36 am 00:36 Cloudy 28 -2 28 -2 100 100 NE 6 9 30.17 1022 10 16 N/A
12:55 am 00:55 Cloudy 28 -2 28 -2 100 100 ENE 5 7 30.17 1022 10 16 N/A
12:56 am 00:56 Cloudy 28 -2 28 -2 100 100 ENE 5 7 30.17 1022 10 16 N/A
1:15 am 01:15 Cloudy 27 -3 27 -3 100 100 ENE 6 9 30.17 1022 10 16 N/A
1:35 am 01:35 Cloudy 27 -3 27 -3 100 100 ENE 3 6 30.18 1022 10 16 N/A
1:36 am 01:36 Cloudy 28 -2 28 -2 100 100 ENE 3 6 30.18 1022 10 16 N/A
1:55 am 01:55 Cloudy 28 -2 28 -2 100 100 ENE 3 6 30.18 1022 10 16 N/A
2:15 am 02:15 Cloudy 28 -2 28 -2 100 100 N N/A 30.19 1022 10 16 N/A
2:35 am 02:35 Cloudy 28 -2 28 -2 100 100 NE 5 7 30.19 1022 10 16 N/A
2:36 am 02:36 Cloudy 28 -2 28 -2 100 100 NE 3 6 30.19 1022 10 16 N/A
2:55 am 02:55 Cloudy 28 -2 28 -2 100 100 NE 5 7 30.19 1022 10 16 N/A
3:15 am 03:15 Cloudy 28 -2 28 -2 100 100 NE 6 9 30.18 1022 10 16 N/A
3:35 am 03:35 Cloudy 28 -2 28 -2 100 100 NE 3 6 30.17 1022 10 16 N/A
3:36 am 03:36 Cloudy 28 -2 28 -2 100 100 NE 5 7 30.17 1022 10 16 N/A
3:55 am 03:55 Cloudy 28 -2 28 -2 100 100 NE 6 9 30.17 1022 10 16 N/A
4:15 am 04:15 Cloudy 28 -2 28 -2 100 100 NNE 7 11 30.17 1022 10 16 N/A
4:35 am 04:35 Cloudy 28 -2 28 -2 100 100 NNE 8 13 30.17 1022 10 16 N/A
4:55 am 04:55 Cloudy 27 -3 27 -3 100 100 NE 9 15 30.18 1022 10 16 N/A
5:15 am 05:15 Cloudy 27 -3 27 -3 100 100 NE 7 11 30.18 1022 10 16 N/A
5:16 am 05:16 Cloudy 27 -3 27 -3 100 100 NNE 8 13 30.18 1022 10 16 N/A
5:35 am 05:35 Cloudy 27 -3 27 -3 100 100 NE 8 13 30.18 1022 10 16 N/A
5:55 am 05:55 Cloudy 27 -3 27 -3 100 100 ENE 6 9 30.18 1022 10 16 N/A
6:15 am 06:15 Cloudy 25 -4 25 -4 100 100 ENE 7 11 30.18 1022 10 16 N/A
6:16 am 06:16 Cloudy 25 -4 25 -4 100 100 ENE 7 11 30.18 1022 10 16 N/A
6:35 am 06:35 Partly Cloudy 23 -5 23 -5 100 100 ENE 7 11 30.19 1022 7 11 N/A
6:56 am 06:56 Clear 23 -5 23 -5 100 100 NE 7 11 30.19 1022 7 11 N/A
7:15 am 07:15 Clear 23 -5 23 -5 100 100 NNE 6 9 30.19 1022 5 8 N/A
7:16 am 07:16 Clear 23 -5 23 -5 100 100 NNE 6 9 30.19 1022 5 8 N/A
7:35 am 07:35 Sunny 23 -5 23 -5 100 100 NE 3 6 30.19 1022 5 8 N/A
7:56 am 07:56 Sunny 23 -5 23 -5 100 100 NE 5 7 30.19 1022 7 11 N/A
8:15 am 08:15 Sunny 23 -5 23 -5 100 100 NE 5 7 30.20 1023 10 16 N/A
8:16 am 08:16 Sunny 23 -5 23 -5 100 100 NE 6 9 30.20 1023 10 16 N/A
8:35 am 08:35 Sunny 25 -4 25 -4 100 100 NNE 5 7 30.22 1023 10 16 N/A
8:55 am 08:55 Sunny 25 -4 25 -4 100 100 NNE 7 11 30.22 1023 10 16 N/A
8:56 am 08:56 Sunny 25 -4 25 -4 100 100 NNE 8 13 30.22 1023 10 16 N/A
9:15 am 09:15 Sunny 27 -3 25 -4 93 93 NE 7 11 30.22 1023 10 16 N/A
9:35 am 09:35 Sunny 28 -2 25 -4 86 86 NNE 9 15 30.21 1023 10 16 N/A
9:55 am 09:55 Sunny 28 -2 25 -4 86 86 ENE 8 13 30.20 1023 10 16 N/A
9:56 am 09:56 Sunny 28 -2 25 -4 86 86 ENE 7 11 30.20 1023 10 16 N/A
10:15 am 10:15 Sunny 28 -2 25 -4 86 86 ENE 9 15 30.19 1022 10 16 N/A
10:16 am 10:16 Sunny 28 -2 25 -4 86 86 ENE 9 15 30.19 1022 10 16 N/A
10:35 am 10:35 Sunny 30 -1 27 -3 86 86 ENE 7 11 30.19 1022 10 16 N/A
10:55 am 10:55 Sunny 30 -1 27 -3 86 86 ENE 12 19 30.19 1022 10 16 N/A
10:56 am 10:56 Sunny 30 -1 27 -3 86 86 ENE 12 19 30.19 1022 10 16 N/A
11:15 am 11:15 Sunny 32 undefined 27 -3 80 80 ENE 12 19 30.19 1022 10 16 N/A
11:35 am 11:35 Partly Cloudy 32 undefined 27 -3 80 80 ENE 9 15 30.19 1022 10 16 N/A
11:55 am 11:55 Partly Cloudy 34 1 28 -2 81 81 NE 10 17 30.18 1022 10 16 N/A
11:56 am 11:56 Partly Cloudy 34 1 27 -3 75 75 ENE 10 17 30.18 1022 10 16 N/A
12:15 pm 12:15 Sunny 34 1 27 -3 75 75 E 9 15 30.17 1022 10 16 N/A
12:35 pm 12:35 Sunny 36 2 28 -2 75 75 E 10 17 30.17 1022 10 16 N/A
12:55 pm 12:55 Sunny 37 3 28 -2 70 70 ENE 9 15 30.15 1021 10 16 N/A
12:56 pm 12:56 Sunny 37 3 28 -2 70 70 ENE 10 17 30.15 1021 10 16 N/A
1:15 pm 13:15 Sunny 37 3 28 -2 70 70 ENE 8 13 30.14 1021 10 16 N/A
1:36 pm 13:36 Sunny 37 3 28 -2 70 70 E 9 15 30.13 1020 10 16 N/A
1:55 pm 13:55 Sunny 39 4 28 -2 65 65 ENE 9 15 30.12 1020 10 16 N/A
1:56 pm 13:56 Sunny 39 4 28 -2 65 65 E 9 15 30.12 1020 10 16 N/A
2:15 pm 14:15 Partly Cloudy 37 3 28 -2 70 70 NE 7 11 30.11 1020 10 16 N/A
2:35 pm 14:35 Cloudy 41 5 30 -1 66 66 ENE 6 9 30.10 1019 10 16 N/A
2:36 pm 14:36 Cloudy 41 5 30 -1 66 66 NE 6 9 30.10 1019 10 16 N/A
2:55 pm 14:55 Cloudy 39 4 28 -2 65 65 ENE 8 13 30.09 1019 10 16 N/A
2:56 pm 14:56 Cloudy 39 4 28 -2 65 65 E 7 11 30.10 1019 10 16 N/A
3:15 pm 15:15 Cloudy 39 4 30 -1 70 70 ENE 6 9 30.09 1019 10 16 N/A
3:35 pm 15:35 Cloudy 39 4 30 -1 70 70 ENE 8 13 30.08 1019 10 16 N/A
3:36 pm 15:36 Cloudy 39 4 30 -1 70 70 ENE 8 13 30.08 1019 10 16 N/A
3:55 pm 15:55 Cloudy 39 4 30 -1 70 70 E 7 11 30.08 1019 10 16 N/A
4:15 pm 16:15 Cloudy 39 4 30 -1 70 70 E 9 15 30.09 1019 10 16 N/A
4:35 pm 16:35 Cloudy 41 5 30 -1 66 66 E 9 15 30.08 1019 10 16 N/A
4:36 pm 16:36 Cloudy 41 5 30 -1 66 66 E 8 13 30.08 1019 10 16 N/A
4:55 pm 16:55 Cloudy 41 5 30 -1 66 66 E 6 9 30.10 1019 10 16 N/A
5:15 pm 17:15 Cloudy 39 4 30 -1 70 70 ENE 7 11 30.09 1019 10 16 N/A
5:35 pm 17:35 Cloudy 39 4 30 -1 70 70 ENE 7 11 30.10 1019 10 16 N/A
5:36 pm 17:36 Cloudy 39 4 30 -1 70 70 ENE 7 11 30.10 1019 10 16 N/A
5:55 pm 17:55 Cloudy 39 4 32 undefined 75 75 NE 7 11 30.10 1019 10 16 N/A
6:15 pm 18:15 Cloudy 39 4 32 undefined 75 75 NE 5 7 30.10 1019 10 16 N/A
6:16 pm 18:16 Cloudy 39 4 32 undefined 75 75 NE 5 7 30.10 1019 10 16 N/A
6:35 pm 18:35 Cloudy 37 3 32 undefined 81 81 NE 5 7 30.10 1019 10 16 N/A
6:55 pm 18:55 Cloudy 37 3 32 undefined 81 81 ENE 3 6 30.11 1020 10 16 N/A
7:15 pm 19:15 Cloudy 36 2 32 undefined 87 87 ENE 6 9 30.11 1020 10 16 N/A
7:16 pm 19:16 Cloudy 36 2 32 undefined 87 87 ENE 6 9 30.11 1020 10 16 N/A
7:35 pm 19:35 Partly Cloudy 34 1 30 -1 87 87 E 7 11 30.11 1020 10 16 N/A
7:55 pm 19:55 Clear 34 1 32 undefined 93 93 ENE 5 7 30.11 1020 10 16 N/A
8:15 pm 20:15 Clear 32 undefined 30 -1 93 93 ENE 3 6 30.13 1020 10 16 N/A
8:16 pm 20:16 Clear 32 undefined 30 -1 93 93 E 3 6 30.13 1020 10 16 N/A
8:35 pm 20:35 Clear 30 -1 28 -2 93 93 NNE 3 6 30.15 1021 10 16 N/A
8:56 pm 20:56 Partly Cloudy 30 -1 30 -1 100 100 N 5 7 30.16 1021 10 16 N/A
9:15 pm 21:15 Cloudy 30 -1 30 -1 100 100 N 6 9 30.17 1022 10 16 N/A
9:16 pm 21:16 Cloudy 32 undefined 30 -1 93 93 N 7 11 30.17 1022 10 16 N/A
9:35 pm 21:35 Cloudy 32 undefined 30 -1 93 93 N 3 6 30.16 1021 10 16 N/A
9:55 pm 21:55 Cloudy 32 undefined 30 -1 93 93 NNE 6 9 30.15 1021 10 16 N/A
9:56 pm 21:56 Cloudy 32 undefined 30 -1 93 93 NNE 6 9 30.16 1021 10 16 N/A
10:15 pm 22:15 Cloudy 32 undefined 30 -1 93 93 NNE 6 9 30.16 1021 10 16 N/A
10:16 pm 22:16 Cloudy 32 undefined 30 -1 93 93 NE 6 9 30.16 1021 10 16 N/A
10:35 pm 22:35 Cloudy 32 undefined 30 -1 93 93 NNE 6 9 30.16 1021 10 16 N/A
10:55 pm 22:55 Cloudy 32 undefined 30 -1 93 93 ENE 5 7 30.16 1021 10 16 N/A
10:56 pm 22:56 Cloudy 32 undefined 28 -2 87 87 ENE 5 7 30.15 1021 10 16 N/A
11:15 pm 23:15 Cloudy 32 undefined 28 -2 87 87 E 6 9 30.15 1021 10 16 N/A
11:16 pm 23:16 Cloudy 32 undefined 28 -2 87 87 E 6 9 30.15 1021 10 16 N/A
11:35 pm 23:35 Cloudy 32 undefined 28 -2 87 87 ENE 5 7 30.15 1021 10 16 N/A

Powered by AerisWeather